[[{"header":{"parameterUnit":"m.s-1","parameterCategory":1,"la1":30.2991,"la2":30.254,"lo1":-89.0895,"lo2":-89.0444,"dy":0.0017,"dx":0.0017,"nx":28,"ny":28,"refTime":"2025-07-26T21:00:00:Z","depth":0,"parameterNumber":2,"parameterNumberName":"U-component_of_WINDS"},"data":[0,0,0,0,0,0,0,0,0,0,0,0,0,0,0,0,0,0,0,0,0,0,0,0,0,0,0,0,0,0,0,0,0,0,0,0,0,0,0,0,0,0,0,0,0,0,0,0,0,0,0,0,0,0,0,0,0,0,2.3923,2.3924,0,2.4037,2.4038,2.4039,2.4007,2.4004,2.4002,2.4,2.4122,2.4127,2.4132,0,0,0,0,0,0,0,0,0,0,0,0,0,2.3683,2.3688,2.3923,2.3924,2.3926,2.4036,2.4038,2.404,2.4007,2.4004,2.4001,2.3999,2.412,2.4126,2.4133,0,0,0,0,0,0,0,0,0,0,0,0,0,2.3791,2.3689,2.3923,2.3923,2.3924,2.4036,2.4038,2.404,2.4008,2.4004,2.4,2.3997,2.4118,2.4126,2.4134,2.4255,0,0,2.4159,2.4162,0,0,0,0,0,0,0,0,2.3785,2.38,2.3921,2.3923,2.3924,2.4004,2.3998,2.4112,2.4008,2.3976,2.4,2.3995,2.4086,2.4096,2.4126,2.4261,2.4266,2.416,2.4165,2.4168,2.417,0,0,0,0,0,0,0,2.3778,2.3795,2.3968,2.3923,2.3925,2.3919,2.393,2.402,2.405,2.3978,2.3976,2.399,2.4086,2.4118,2.4128,2.4268,2.4159,2.4167,2.4172,2.4175,2.451,2.4513,0,0,0,0,0,0,2.3768,2.3789,2.3964,2.3971,2.3844,2.3926,2.3939,2.3982,2.4048,2.4055,2.3993,2.3988,2.4106,2.4119,2.4132,2.4279,2.4168,2.4176,2.418,2.4506,2.451,2.4515,0,0,0,0,0,0,2.3763,2.3784,2.396,2.388,2.3902,2.3934,2.3983,2.3986,2.4018,2.4059,2.4065,2.402,2.4103,2.4121,2.4225,2.4283,2.4179,2.4187,2.4501,2.4507,2.4513,2.4574,0,0,0,0,0,0,2.3757,2.3783,2.3828,2.3881,2.3906,2.4049,2.3986,2.3991,2.4031,2.4026,2.4086,2.4092,2.4102,2.4213,2.4233,2.4293,2.4193,2.4496,2.4504,2.4511,2.4567,2.4581,2.4594,0,0,0,0,0,2.3748,2.3841,2.383,2.3851,2.3962,2.4052,2.4066,2.4074,2.4036,2.4082,2.4109,2.409,2.4273,2.4224,2.4246,2.4309,2.4492,2.4501,2.451,2.4561,2.4578,2.4593,0,0,0,0,0,0,2.3795,2.3848,2.3836,2.3949,2.3996,2.4046,2.4105,2.4092,2.4153,2.4145,2.4154,2.4168,2.4274,2.4302,2.4246,2.4431,2.4378,2.4391,2.4408,2.4425,2.4439,2.443,2.42,0,0,0,0,0,2.3819,2.3885,2.3928,2.4024,2.4048,2.4072,2.4112,2.4113,2.4163,2.4184,2.4218,2.4269,2.4338,2.4383,2.4449,2.4571,2.4584,2.4625,2.4639,2.4649,2.4662,2.473,2.4749,2.4544,2.4544,2.4544,0,0,2.3868,2.3905,2.3947,2.4034,2.4071,2.4141,2.4089,2.4166,2.4219,2.4196,2.4295,2.4323,2.438,2.4494,2.4546,2.452,2.4721,2.4661,2.4669,2.4676,2.4741,2.476,2.4777,2.455,2.4549,2.4548,0,0,2.3994,2.4028,2.4111,2.4149,2.4205,2.4221,2.4241,2.4293,2.431,2.441,2.4394,2.4458,2.4577,2.4619,2.4655,2.4798,2.4784,2.482,2.489,2.4956,2.4972,2.4986,2.5038,2.5057,2.4831,2.4832,2.4832,0,2.4048,2.4152,2.4156,2.4235,2.4274,2.4255,2.4341,2.4378,2.4453,2.4482,2.4452,2.4601,2.4638,2.4762,2.4797,2.4827,2.4852,2.4813,2.4969,2.4983,2.4997,2.5047,2.5066,2.4836,2.4835,2.4835,2.4834,0,2.4217,2.429,2.4351,2.4422,2.4469,2.4551,2.457,2.4617,2.4615,2.4635,2.4738,2.4782,2.4856,2.4886,2.4885,2.501,2.4993,2.4966,2.4913,2.502,2.5067,2.5086,2.4842,2.484,2.4839,2.4838,0,0,2.4375,2.4448,2.4471,2.4504,2.4564,2.4622,2.4704,2.4775,2.4816,2.4869,2.4939,2.504,2.5016,2.5057,2.5062,2.5119,2.5231,2.5086,2.5087,2.5112,2.5373,2.5393,2.5415,2.5222,2.5225,2.5228,2.5369,0,2.4507,2.4649,2.4656,2.4786,2.4854,2.4837,2.4909,2.4955,2.4976,2.5038,2.5062,2.5134,2.5096,2.5121,2.5177,2.5206,2.5284,2.5196,2.5289,2.5292,2.5275,2.5439,2.5461,2.5591,2.5387,2.539,2.5392,0,2.4679,2.4736,2.4873,2.4924,2.4953,2.5017,2.5084,2.5143,2.5196,2.5207,2.5254,2.525,2.5336,2.528,2.54,2.5339,2.5378,2.5398,2.5403,2.5413,2.5349,2.5454,2.5633,2.5652,2.5421,2.5419,2.5417,0,2.4782,2.4893,2.4989,2.5018,2.508,2.5126,2.5155,2.5204,2.5247,2.5306,2.5334,2.5403,2.5441,2.5496,2.5511,2.5468,2.5631,2.5576,2.5644,2.5644,2.5679,2.5677,2.5867,2.5704,2.5703,2.5703,2.5703,0,2.4929,2.5013,2.5036,2.5096,2.519,2.5199,2.5293,2.5319,2.5363,2.5428,2.5418,2.548,2.5497,2.5563,2.5576,2.5673,2.5691,2.5703,2.5706,2.5705,2.5703,2.573,2.5722,2.5708,2.5707,2.5706,2.5705,0,2.5059,2.5078,2.5182,2.5233,2.5248,2.5316,2.536,2.5418,2.5438,2.5521,2.5541,2.5573,2.5649,2.567,2.5763,2.5771,2.5887,2.5881,2.5868,2.5869,2.5936,2.593,2.6151,2.6181,2.5997,2.5999,2.6,0,2.5152,2.5216,2.5274,2.5316,2.5346,2.5415,2.5458,2.547,2.5516,2.5581,2.5632,2.5707,2.5768,2.5892,2.5925,2.5996,2.5992,2.6064,2.6002,2.5999,2.5994,2.599,2.5997,2.6076,2.6078,2.608,2.6081,0,2.5314,2.532,2.5382,2.5449,2.5501,2.5554,2.5605,2.5641,2.5659,2.5712,2.579,2.5837,2.5931,2.6007,2.6078,2.611,2.61,2.61,2.612,2.6119,2.611,2.6117,2.5901,2.6095,2.6094,2.6093,2.6092,2.6091,2.5429,2.5486,2.5535,2.5606,2.5645,2.5693,2.575,2.5777,2.5841,2.5917,2.5921,2.6006,2.6058,2.6153,2.6189,2.6257,2.6235,2.6264,2.6271,2.6278,2.6284,2.6099,2.627,2.6269,2.6269,2.6269,2.6269,0,2.5591,2.5622,2.5687,2.5758,2.5814,2.5797,2.5853,2.5902,2.5976,2.6025,2.6085,2.6175,2.6248,2.6287,2.636,2.6407,2.6404,2.6426,2.6423,2.6431,2.6299,2.6274,2.6427,2.6427,2.6427,2.6427,2.6427,2.6427,2.5682,2.5777,2.579,2.5906,2.5937,2.6019,2.6052,2.6097,2.6136,2.6237,2.6297,2.6321,2.6367,2.6444,2.6511,2.652,2.6548,2.6573,2.658,2.6456,2.644,2.6424,2.6402,2.6579,2.6579,2.6706,2.6707,2.6708]},{"header":{"parameterUnit":"m.s-1","parameterCategory":1,"la1":30.2991,"la2":30.254,"lo1":-89.0895,"lo2":-89.0444,"dy":0.0017,"dx":0.0017,"nx":28,"ny":28,"refTime":"2025-07-26T21:00:00:Z","depth":0,"parameterNumber":3,"parameterNumberName":"V-component_of_WINDS"},"data":[0,0,0,0,0,0,0,0,0,0,0,0,0,0,0,0,0,0,0,0,0,0,0,0,0,0,0,0,0,0,0,0,0,0,0,0,0,0,0,0,0,0,0,0,0,0,0,0,0,0,0,0,0,0,0,0,0,0,2.2764,2.2765,0,2.2862,2.2863,2.2864,2.2813,2.281,2.2807,2.2805,2.2904,2.2909,2.2914,0,0,0,0,0,0,0,0,0,0,0,0,0,2.2529,2.2533,2.2764,2.2765,2.2767,2.2862,2.2863,2.2865,2.2813,2.281,2.2807,2.2804,2.2902,2.2908,2.2914,0,0,0,0,0,0,0,0,0,0,0,0,0,2.2629,2.2535,2.2764,2.2752,2.2752,2.2862,2.2863,2.2865,2.2814,2.281,2.2806,2.2802,2.29,2.2908,2.2915,2.3041,0,0,2.2939,2.2942,0,0,0,0,0,0,0,0,2.2624,2.2638,2.2753,2.2753,2.2754,2.2821,2.2816,2.2924,2.2815,2.279,2.2805,2.28,2.2879,2.2889,2.2916,2.3046,2.305,2.2939,2.2944,2.2947,2.2949,0,0,0,0,0,0,0,2.2617,2.2633,2.2803,2.2755,2.2755,2.2741,2.2751,2.2837,2.2856,2.2792,2.2789,2.2801,2.2879,2.2908,2.2917,2.3051,2.2939,2.2946,2.295,2.2953,2.3284,2.3288,0,0,0,0,0,0,2.2611,2.2628,2.28,2.2806,2.2678,2.2748,2.276,2.2803,2.2855,2.2859,2.2804,2.2798,2.2897,2.2909,2.2921,2.3067,2.2947,2.2954,2.2959,2.3279,2.3284,2.3289,0,0,0,0,0,0,2.2606,2.2627,2.2796,2.2716,2.2736,2.2757,2.2806,2.2807,2.2837,2.2864,2.2867,2.2831,2.2895,2.291,2.301,2.307,2.2958,2.2965,2.3274,2.3281,2.3287,2.3364,0,0,0,0,0,0,2.2599,2.2625,2.2675,2.2718,2.2741,2.2885,2.281,2.2812,2.285,2.2843,2.289,2.2894,2.2893,2.2999,2.3018,2.3078,2.2971,2.3269,2.3277,2.3285,2.3356,2.3372,2.3386,0,0,0,0,0,2.2591,2.2694,2.2677,2.2698,2.2803,2.2889,2.2902,2.2899,2.2855,2.2904,2.292,2.2892,2.3061,2.301,2.3031,2.3094,2.3265,2.3275,2.3284,2.3349,2.3369,2.3385,0,0,0,0,0,0,2.2658,2.2699,2.2682,2.2801,2.2842,2.288,2.2941,2.2921,2.2975,2.2966,2.296,2.2971,2.3074,2.3094,2.3037,2.3216,2.3156,2.317,2.3198,2.3217,2.3232,2.3223,2.2977,0,0,0,0,0,2.2687,2.2754,2.2786,2.2888,2.2909,2.2922,2.2959,2.2953,2.2995,2.3012,2.3036,2.3077,2.3138,2.3179,2.3238,2.3359,2.3366,2.3413,2.3428,2.344,2.3451,2.3511,2.3531,2.332,2.332,2.332,0,0,2.2746,2.2777,2.282,2.2902,2.2933,2.3,2.2937,2.3012,2.3061,2.3023,2.3118,2.3137,2.3182,2.3292,2.3341,2.3312,2.3511,2.3452,2.3461,2.3466,2.3523,2.3543,2.3561,2.3326,2.3325,2.3324,0,0,2.2889,2.2921,2.3007,2.3038,2.3085,2.3092,2.3113,2.3154,2.3164,2.3259,2.323,2.3288,2.3396,2.3428,2.3458,2.3608,2.3582,2.3627,2.3704,2.3763,2.3779,2.3794,2.3843,2.3862,2.3639,2.3639,2.364,0,2.2957,2.3059,2.3054,2.313,2.3165,2.3132,2.3217,2.3248,2.3312,2.3336,2.3302,2.3433,2.3462,2.3576,2.3612,2.3639,2.366,2.3621,2.3778,2.3792,2.3806,2.3852,2.3872,2.3644,2.3644,2.3643,2.3643,0,2.3138,2.3208,2.3272,2.3332,2.3375,2.3456,2.346,2.3504,2.3493,2.3503,2.3598,2.363,2.3692,2.372,2.3711,2.3831,2.3811,2.3778,2.3717,2.3831,2.3874,2.3893,2.3651,2.3649,2.3648,2.3647,0,0,2.3326,2.338,2.3403,2.3428,2.3476,2.3529,2.3607,2.3667,2.3702,2.3747,2.3809,2.3899,2.3867,2.3901,2.3895,2.3948,2.4058,2.3907,2.3908,2.3931,2.4187,2.4209,2.423,2.4042,2.4046,2.4048,2.4182,0,2.3469,2.3604,2.36,2.3725,2.3787,2.3756,2.3822,2.3857,2.3868,2.3921,2.3933,2.3995,2.3951,2.397,2.402,2.4034,2.4109,2.4025,2.4097,2.4099,2.4083,2.4254,2.4279,2.4403,2.4199,2.4202,2.4205,0,2.3653,2.3701,2.3833,2.3866,2.3892,2.3953,2.4004,2.4057,2.4095,2.4098,2.4135,2.4119,2.4195,2.4133,2.4235,2.4177,2.4207,2.4217,2.4222,2.4226,2.4157,2.4259,2.4444,2.4461,2.4232,2.423,2.4228,0,2.3772,2.387,2.396,2.3983,2.4026,2.4068,2.4087,2.4121,2.4156,2.4202,2.4223,2.4278,2.4307,2.4348,2.4346,2.4302,2.4448,2.4387,2.445,2.445,2.448,2.4478,2.4668,2.4505,2.4504,2.4504,2.4504,0,2.393,2.401,2.4013,2.4068,2.4155,2.4149,2.4236,2.4251,2.428,2.4336,2.4313,2.4365,2.4361,2.4413,2.4413,2.4494,2.4509,2.4511,2.4509,2.4512,2.4511,2.4529,2.4518,2.4509,2.4508,2.4507,2.4506,0,2.4077,2.4083,2.4177,2.4209,2.4218,2.4281,2.4307,2.4358,2.4365,2.4436,2.4452,2.4463,2.4523,2.4526,2.4595,2.4594,2.4692,2.4683,2.4679,2.4676,2.4737,2.473,2.4943,2.4968,2.4792,2.4794,2.4795,0,2.4175,2.4236,2.4273,2.4308,2.433,2.4387,2.4422,2.4417,2.4454,2.4499,2.4543,2.46,2.4645,2.4742,2.4755,2.4807,2.4796,2.4867,2.4804,2.4802,2.4792,2.4787,2.4791,2.4879,2.4881,2.4882,2.4884,0,2.4348,2.4347,2.4398,2.4449,2.4491,2.4531,2.4568,2.4598,2.4597,2.4639,2.4699,2.4734,2.4803,2.4858,2.4908,2.4926,2.4903,2.4904,2.492,2.4921,2.4915,2.4914,2.4709,2.4898,2.4897,2.4896,2.4895,2.4894,2.4472,2.4522,2.4554,2.4611,2.4638,2.4672,2.4719,2.4732,2.4782,2.4837,2.4831,2.4897,2.4929,2.4992,2.5014,2.5064,2.5039,2.5065,2.507,2.5075,2.508,2.4909,2.5074,2.5073,2.5073,2.5073,2.5072,0,2.4639,2.4658,2.471,2.4761,2.4804,2.478,2.4819,2.4856,2.4914,2.4946,2.499,2.5056,2.5109,2.5126,2.5177,2.5213,2.5203,2.5226,2.5221,2.5225,2.5101,2.508,2.5232,2.5232,2.5232,2.5232,2.5232,2.5232,2.4732,2.4814,2.4816,2.491,2.4928,2.4991,2.5015,2.5045,2.507,2.5145,2.5188,2.5199,2.5223,2.5275,2.5321,2.5324,2.5342,2.5368,2.5367,2.525,2.5234,2.5219,2.5199,2.5373,2.5373,2.5486,2.5487,2.5487]}]]